Location: Kelshall
(52.0000°N, 0.0500°W)
Time: 22:05:41
(UTC+00:00)

ATLAS 2AS CENTAUR R/B - Pass Details

Date: 23 January 2021
Orbit: 947 x 1265 km, 63.7° (Epoch: 13 February)

Event Time Altitude Azimuth Distance (km) Brightness Sun altitude
Rises 21:31:05 0° 307° (NW) 4,188 6.6 -44.7°
Reaches altitude 10° 21:34:05 10° 313° (NW) 3,191 5.7 -45.1°
Enters shadow 21:37:43 28° 329° (NNW) 2,104 4.5 -45.5°
